星链-31250 (STARLINK-31250 )

导读

STARLINK-31250是美国太空探索技术公司Starlink卫星互联网星座的成员,于2024年1月24日发射升空。该卫星属于Starlink Gen2系列,主要用于提供全球覆盖的低轨宽带互联网服务,依托星链星座庞大的组网规模,可为偏远地区、移动载体等场景提供稳定网络接入,支撑卫星互联网的全球服务能力拓展。

Basic Information
目录编号:
58839
目录名称:
STARLINK-31250
国际标识:
2024-017P
轨道中心:
EARTH
卫星名称:
星链-31250
卫星全名:
星链-31250 (STARLINK-31250 )
卫星状态:
在轨 (已飞行876 天)
发射日期:
2024-01-24 UTC
国别 :
美国 (US)
星等 :
--
Orbit Information
数据来源 国际轨道数据 AOE轨道数据
星历时间 2026-06-17T10:20:37+0800
1天前
查看轨道信息
2026-06-16T00:00:00+0800
2天前
查看轨道信息
半长轴 6840.847km 6840.859km
偏心率 0.0001401 0.0001292
轨道倾角 53.162° 53.160°
近地点辐角 81.296° 138.599°
升交点赤经 91.392° 98.077°
平近点角 278.820° 232.603°
近地点 461.751km 461.838km
远地点 463.669km 463.606km
周期 93.848分钟 93.848分钟
每日圈数 15.343979 15.343939
Detailed Information
固有亮度:
5
最大亮度:
0.3
卫星平台:
Starlink v2.0 mini
覆盖范围:
全球
运营商:
太空探索技术公司
运营商所在国:
美国
制造商(研发单位):
太空探索技术公司
制造商所在国:
美国
使用方式:
暂无
Satellite Introduction
星链(Starlink)计划是由太空探索技术公司(SpaceX)提出的一个巨型低轨卫星互联网星座项目,计划在2019年至2024年间在太空搭建由约1.2万颗卫星组成的“星链”网络,其中1584颗将部署在地球上空550千米处的近地轨道,并从2020年开始工作。该卫星仍在工作。
2D Orbit Map
3D Orbit Map
Orbit Altitude Analysis Chart
Orbit Inclination Analysis Chart
Orbit Comprehensive Analysis Chart
View Comprehensive Chart